This is the latest recevied weather packets stored in our database for station/object W2EH. If no packets are shown the sender has not sent any weather packets the latest 10 day(s).
| Time | Temp. | Humidity | Pressure | Rain* | Wind** | Luminosity | Snow |
|---|---|---|---|---|---|---|---|
| 1777926726 | 26.67° C | 58% | 1009.5 hPa | 0 mm | - | 692 W/m² | - |
| 1777926426 | 26.67° C | 57% | 1009.7 hPa | 0 mm | - | 213 W/m² | - |
| 1777926123 | 27.22° C | 56% | 1009.9 hPa | 0 mm | - | 616 W/m² | - |
| 1777925820 | 26.67° C | 58% | 1009.7 hPa | 0 mm | - | 566 W/m² | - |
| 1777925518 | 27.22° C | 57% | 1009.7 hPa | 0 mm | - | 724 W/m² | - |
| 1777925215 | 26.67° C | 57% | 1009.8 hPa | 0 mm | - | 609 W/m² | - |
| 1777924911 | 26.67° C | 59% | 1010 hPa | 0 mm | - | 466 W/m² | - |
| 1777924607 | 26.67° C | 58% | 1009.9 hPa | 0 mm | - | 528 W/m² | - |
| 1777924304 | 26.67° C | 58% | 1010.4 hPa | 0 mm | - | 647 W/m² | - |
| 1777924001 | 26.67° C | 57% | 1010.6 hPa | 0 mm | - | 506 W/m² | - |
| 1777923697 | 26.67° C | 60% | 1010.6 hPa | 0 mm | - | 853 W/m² | - |
| 1777923393 | 26.67° C | 58% | 1010.5 hPa | 0 mm | - | 740 W/m² | - |
| 1777923091 | 26.67° C | 60% | 1010.3 hPa | 0 mm | - | 939 W/m² | - |
| 1777922789 | 26.67° C | 58% | 1010.6 hPa | 0 mm | - | 767 W/m² | - |
| 1777922487 | 26.67° C | 59% | 1010.8 hPa | 0 mm | - | 920 W/m² | - |
| 1777922185 | 26.67° C | 58% | 1010.8 hPa | 0 mm | - | 555 W/m² | - |
| 1777921881 | 26.11° C | 62% | 1010.7 hPa | 0 mm | - | 673 W/m² | - |
| 1777921577 | 25.56° C | 59% | 1011.3 hPa | 0 mm | - | 1124 W/m² | - |
| 1777921274 | 25.56° C | 60% | 1011.2 hPa | 0 mm | - | 261 W/m² | - |
| 1777920970 | 25.56° C | 59% | 1011.2 hPa | 0 mm | - | 175 W/m² | - |
| 1777920667 | 25.56° C | 60% | 1011.4 hPa | 0 mm | - | 721 W/m² | - |
| 1777920363 | 26.11° C | 60% | 1011.3 hPa | 0 mm | - | 673 W/m² | - |
| 1777920058 | 25.56° C | 61% | 1011.2 hPa | 0 mm | - | 769 W/m² | - |
| 1777919755 | 25° C | 62% | 1011.4 hPa | 0 mm | - | 460 W/m² | - |
| 1777919453 | 25° C | 62% | 1011.5 hPa | 0 mm | - | 399 W/m² | - |
* Rain latest hour (hover to see other rain measurements)
** Current wind speed in m/s (hover to see current wind gust speed)